Location: Deuil
(48.9767°N, 2.3272°E)
Time: 00:46:42
(UTC+00:00)

Envisat - Visible Passes

Search period start: 19 January 2022 00:00
Search period end: 29 January 2022 00:00
Orbit: 764 x 766 km, 98.2° (Epoch: 18 January)

Date Brightness Start Highest point End Pass type
(mag) Time Alt. Az. Time Alt. Az. Time Alt. Az.
19 Jan 5.3 03:41:53 10° NE 03:45:40 21° E 03:49:25 10° SE visible
19 Jan 2.9 05:20:04 10° N 05:25:06 61° WNW 05:30:05 10° SSW visible
19 Jan 4.8 07:01:37 10° NW 07:03:07 11° NW 07:04:37 10° WNW visible
20 Jan 3.2 04:43:09 10° NNE 04:48:15 68° ESE 04:53:18 10° S visible
20 Jan 4.2 06:23:05 10° NNW 06:26:47 21° WNW 06:30:29 10° WSW visible
21 Jan 4.5 04:06:35 10° NNE 04:11:11 33° E 04:15:45 10° SSE visible
21 Jan 3.4 05:45:34 10° N 05:50:15 38° WNW 05:54:55 10° SW visible
21 Jan 5.8 17:05:43 10° SW 17:09:20 19° W 17:12:58 10° NW visible
22 Jan 5.6 03:30:43 10° NE 03:33:56 17° E 03:37:08 10° SE visible
22 Jan 2.8 05:08:26 10° N 05:13:32 75° WNW 05:18:35 10° SSW visible
22 Jan 4.6 06:49:16 10° NNW 06:51:43 14° NW 06:54:10 10° W visible
23 Jan 3.6 04:31:37 10° NNE 04:36:37 54° E 04:41:35 10° S visible
23 Jan 4.0 06:11:14 10° N 06:15:19 25° WNW 06:19:23 10° WSW visible
23 Jan 6.2 17:33:15 10° WSW 17:34:58 12° W 17:36:41 10° WNW visible
24 Jan 4.9 03:55:12 10° NE 03:59:30 27° E 04:03:47 10° SSE visible
24 Jan 3.2 05:33:52 10° N 05:38:44 47° WNW 05:43:34 10° SW visible
25 Jan 5.8 03:19:47 10° ENE 03:22:11 13° E 03:24:34 10° ESE visible
25 Jan 2.9 04:56:49 10° NNE 05:01:57 88° ESE 05:07:02 10° SSW visible
25 Jan 4.4 06:37:11 10° NNW 06:40:17 16° NW 06:43:22 10° W visible
26 Jan 4.0 04:20:06 10° NNE 04:24:58 44° E 04:29:48 10° S visible
26 Jan 3.7 05:59:27 10° N 06:03:50 30° WNW 06:08:11 10° WSW visible
26 Jan 6.0 17:20:25 10° WSW 17:23:12 15° W 17:26:01 10° NW visible
27 Jan 5.2 03:43:53 10° NE 03:47:48 22° E 03:51:42 10° SE visible
27 Jan 3.0 05:22:11 10° N 05:27:11 57° WNW 05:32:09 10° SSW visible
28 Jan 6.0 03:09:39 10° ENE 03:10:24 10° E 03:11:09 10° E visible
28 Jan 3.1 04:45:14 10° NNE 04:50:21 72° ESE 04:55:25 10° S visible
28 Jan 4.3 06:25:15 10° NNW 06:28:50 20° WNW 06:32:25 10° WSW visible
